[[{"header":{"parameterUnit":"m.s-1","parameterCategory":1,"la1":30.2991,"la2":30.254,"lo1":-89.0895,"lo2":-89.0444,"dy":0.0017,"dx":0.0017,"nx":28,"ny":28,"refTime":"2024-03-09T03:00:00:Z","depth":0,"parameterNumber":2,"parameterNumberName":"U-component_of_WINDS"},"data":[0,0,0,0,0,0,0,0,0,0,0,0,0,0,0,0,0,0,0,0,0,0,0,0,0,0,0,0,0,0,0,0,0,0,0,0,0,0,0,0,0,0,0,0,0,0,0,0,0,0,0,0,0,0,0,0,0,0,1.9936,1.9936,0,1.9979,1.998,1.998,1.9978,1.9977,1.9977,1.9976,2.002,2.0022,2.0024,0,0,0,0,0,0,0,0,0,0,0,0,0,1.9851,1.9852,1.9936,1.9936,1.9937,1.9979,1.998,1.998,1.9978,1.9977,1.9976,1.9976,2.002,2.0022,2.0024,0,0,0,0,0,0,0,0,0,0,0,0,0,1.989,1.9853,1.9935,1.9941,1.9941,1.9979,1.998,1.9981,1.9978,1.9977,1.9976,1.9975,2.0019,2.0022,2.0024,2.006,0,0,2.0032,2.0033,0,0,0,0,0,0,0,0,1.9888,1.9893,1.9939,1.994,1.9941,1.9972,1.9966,2.0007,1.9978,1.9964,1.9976,1.9975,2.0005,2.0009,2.0019,2.0062,2.0064,2.0033,2.0034,2.0035,2.0036,0,0,0,0,0,0,0,1.9885,1.9891,1.9953,1.994,1.9941,1.9941,1.9945,1.9974,1.9989,1.9965,1.9965,1.997,2.0005,2.0016,2.002,2.0064,2.0032,2.0035,2.0036,2.0037,2.014,2.0141,0,0,0,0,0,0,1.9881,1.9889,1.9951,1.9954,1.9912,1.9943,1.9948,1.9963,1.9989,1.9992,1.9971,1.997,2.0012,2.0017,2.0022,2.0065,2.0035,2.0038,2.0039,2.0138,2.014,2.0141,0,0,0,0,0,0,1.988,1.9887,1.995,1.9922,1.993,1.9946,1.9962,1.9965,1.9976,1.9994,1.9996,1.998,2.0012,2.0018,2.005,2.0067,2.0039,2.0041,2.0137,2.0139,2.014,2.0152,0,0,0,0,0,0,1.9877,1.9886,1.9899,1.9922,1.9931,1.9978,1.9963,1.9966,1.998,1.9979,2.0002,2.0005,2.0012,2.0047,2.0053,2.007,2.0043,2.0136,2.0138,2.014,2.0151,2.0154,2.0157,0,0,0,0,0,1.9874,1.9901,1.99,1.9908,1.9948,1.9978,1.9984,1.9991,1.9982,1.9995,2.0007,2.0004,2.0064,2.005,2.0057,2.0075,2.0135,2.0137,2.014,2.0149,2.0154,2.0157,0,0,0,0,0,0,1.9879,1.9904,1.9903,1.9938,1.9956,1.9978,1.9995,1.9995,2.0016,2.0014,2.0022,2.0027,2.006,2.0071,2.0055,2.0111,2.0098,2.0102,2.0103,2.0107,2.0111,2.0107,2.0046,0,0,0,0,0,1.9884,1.9907,1.9927,1.9956,1.9965,1.9979,1.9992,1.9997,2.0016,2.0023,2.0037,2.0056,2.0079,2.0094,2.0116,2.0153,2.0158,2.0169,2.0172,2.0175,2.0178,2.0199,2.0204,2.0149,2.0149,2.0149,0,0,1.9895,1.9911,1.9925,1.9958,1.9972,1.9996,1.9985,2.001,2.0028,2.0027,2.0058,2.007,2.0091,2.0126,2.0142,2.0136,2.0195,2.0178,2.018,2.0182,2.0202,2.0208,2.0212,2.0151,2.0151,2.015,0,0,1.9927,1.9941,1.9967,1.9982,2.0005,2.0014,2.0021,2.0043,2.005,2.0083,2.0083,2.0104,2.0144,2.0159,2.0172,2.0212,2.0211,2.0219,2.0237,2.0257,2.0261,2.0265,2.028,2.0285,2.0223,2.0223,2.0223,0,1.9937,1.9972,1.998,2.0006,2.0021,2.0022,2.0048,2.0063,2.0091,2.0102,2.0095,2.0145,2.016,2.0199,2.0209,2.0219,2.0227,2.0216,2.026,2.0264,2.0268,2.0282,2.0287,2.0224,2.0223,2.0223,2.0223,0,1.9984,2.0009,2.0027,2.0055,2.0072,2.0098,2.0111,2.0127,2.013,2.014,2.0174,2.0192,2.0218,2.0228,2.0231,2.0268,2.0264,2.0258,2.0245,2.0274,2.0287,2.0292,2.0225,2.0224,2.0224,2.0224,0,0,2.0018,2.0052,2.0058,2.0072,2.0098,2.0117,2.0144,2.017,2.0184,2.0204,2.0227,2.0262,2.0257,2.0272,2.0278,2.0296,2.0327,2.0289,2.0289,2.0295,2.0369,2.0373,2.0378,2.0327,2.0328,2.0329,2.0368,0,2.0052,2.0099,2.0108,2.0149,2.0172,2.0175,2.0198,2.0217,2.0228,2.025,2.0262,2.0286,2.0279,2.0288,2.0306,2.0319,2.0342,2.0317,2.0348,2.0349,2.0342,2.0385,2.0388,2.0424,2.0373,2.0374,2.0374,0,2.0097,2.0119,2.0163,2.0187,2.0197,2.0218,2.0243,2.0264,2.0286,2.0293,2.0311,2.0314,2.0343,2.033,2.0369,2.0352,2.0366,2.0374,2.0376,2.0378,2.0362,2.0389,2.0436,2.0441,2.0382,2.0382,2.0381,0,2.0118,2.0158,2.019,2.0201,2.023,2.0245,2.0258,2.0279,2.0295,2.0317,2.0328,2.0353,2.0367,2.0387,2.0398,2.0387,2.0437,2.0425,2.0444,2.0444,2.0453,2.0452,2.0503,2.0463,2.0463,2.0463,2.0463,0,2.0154,2.018,2.0199,2.0219,2.0249,2.026,2.0289,2.0302,2.0321,2.0344,2.0348,2.0369,2.0382,2.0405,2.0414,2.0446,2.0452,2.0459,2.0461,2.0458,2.0457,2.0466,2.0464,2.0464,2.0464,2.0464,2.0464,0,2.0181,2.0195,2.0229,2.0255,2.0262,2.0283,2.0305,2.0324,2.0336,2.0364,2.0371,2.0389,2.0417,2.043,2.0464,2.0471,2.0507,2.0507,2.0499,2.05,2.0518,2.0516,2.0575,2.0584,2.0539,2.054,2.054,0,2.0203,2.0223,2.0251,2.0267,2.028,2.0304,2.0321,2.0333,2.035,2.0378,2.0394,2.0422,2.0445,2.0489,2.0505,2.0532,2.0533,2.0552,2.0537,2.0534,2.0533,2.0531,2.0534,2.0554,2.0555,2.0555,2.0555,0,2.024,2.0246,2.027,2.0296,2.0316,2.0337,2.0358,2.0371,2.0387,2.0406,2.0434,2.0452,2.0488,2.0515,2.0543,2.0557,2.0559,2.056,2.0566,2.0563,2.0557,2.0561,2.0506,2.0558,2.0558,2.0558,2.0558,2.0558,2.0265,2.0284,2.0306,2.0333,2.035,2.037,2.039,2.0405,2.0429,2.0459,2.0465,2.0495,2.0518,2.0556,2.0571,2.0596,2.0591,2.06,2.0602,2.0603,2.0604,2.0555,2.0601,2.0601,2.0601,2.0601,2.0601,0,2.0302,2.0317,2.0342,2.0371,2.0393,2.0394,2.0418,2.0435,2.0462,2.0483,2.0506,2.054,2.0567,2.0587,2.0615,2.0631,2.0633,2.0638,2.0636,2.064,2.0607,2.0599,2.0636,2.0636,2.0636,2.0636,2.0636,2.0636,2.0324,2.0356,2.0365,2.0406,2.0422,2.0452,2.0465,2.0484,2.0502,2.0539,2.0562,2.0575,2.0596,2.0626,2.0652,2.0657,2.0667,2.0672,2.0677,2.0646,2.0642,2.0638,2.0631,2.0675,2.0675,2.0708,2.0709,2.0709]},{"header":{"parameterUnit":"m.s-1","parameterCategory":1,"la1":30.2991,"la2":30.254,"lo1":-89.0895,"lo2":-89.0444,"dy":0.0017,"dx":0.0017,"nx":28,"ny":28,"refTime":"2024-03-09T03:00:00:Z","depth":0,"parameterNumber":3,"parameterNumberName":"V-component_of_WINDS"},"data":[0,0,0,0,0,0,0,0,0,0,0,0,0,0,0,0,0,0,0,0,0,0,0,0,0,0,0,0,0,0,0,0,0,0,0,0,0,0,0,0,0,0,0,0,0,0,0,0,0,0,0,0,0,0,0,0,0,0,-6.9149,-6.9151,0,-6.932,-6.9322,-6.9324,-6.9279,-6.9276,-6.9273,-6.927,-6.9441,-6.9448,-6.9456,0,0,0,0,0,0,0,0,0,0,0,0,0,-6.8779,-6.8786,-6.9148,-6.9151,-6.9153,-6.932,-6.9322,-6.9325,-6.928,-6.9276,-6.9272,-6.9268,-6.9438,-6.9447,-6.9457,0,0,0,0,0,0,0,0,0,0,0,0,0,-6.8944,-6.8788,-6.9148,-6.9151,-6.9153,-6.9319,-6.9322,-6.9325,-6.9281,-6.9276,-6.9271,-6.9266,-6.9435,-6.9446,-6.9458,-6.9631,0,0,-6.9493,-6.9498,0,0,0,0,0,0,0,0,-6.8935,-6.8957,-6.9148,-6.9151,-6.9153,-6.9273,-6.9255,-6.9428,-6.9282,-6.9232,-6.9269,-6.9264,-6.9389,-6.9404,-6.9447,-6.9639,-6.9646,-6.9494,-6.9501,-6.9506,-6.951,0,0,0,0,0,0,0,-6.8923,-6.895,-6.9216,-6.9151,-6.9154,-6.9142,-6.916,-6.9287,-6.9337,-6.9236,-6.9233,-6.9255,-6.9389,-6.9436,-6.9451,-6.9649,-6.9494,-6.9504,-6.9511,-6.9516,-6.9992,-6.9997,0,0,0,0,0,0,-6.891,-6.8941,-6.9211,-6.9221,-6.9029,-6.9153,-6.9173,-6.924,-6.9335,-6.9345,-6.9259,-6.9252,-6.9419,-6.9437,-6.9457,-6.9666,-6.9506,-6.9517,-6.9524,-6.9986,-6.9993,-6.9999,0,0,0,0,0,0,-6.8903,-6.8935,-6.9204,-6.908,-6.9114,-6.9165,-6.924,-6.9246,-6.9293,-6.9352,-6.9361,-6.9298,-6.9416,-6.944,-6.9588,-6.9672,-6.9522,-6.9533,-6.9979,-6.9988,-6.9996,-7.0087,0,0,0,0,0,0,-6.8892,-6.8932,-6.8999,-6.9082,-6.9121,-6.9334,-6.9246,-6.9253,-6.9313,-6.9306,-6.9391,-6.94,-6.9413,-6.9571,-6.96,-6.9685,-6.9542,-6.9972,-6.9983,-6.9993,-7.0077,-7.0097,-7.0115,0,0,0,0,0,-6.8879,-6.9017,-6.9003,-6.9036,-6.9206,-6.9339,-6.9361,-6.9375,-6.932,-6.9388,-6.9426,-6.9398,-6.9658,-6.9587,-6.9619,-6.9708,-6.9967,-6.998,-6.9993,-7.0068,-7.0093,-7.0115,0,0,0,0,0,0,-6.8941,-6.9028,-6.9013,-6.9182,-6.9254,-6.9331,-6.9417,-6.9401,-6.9488,-6.9477,-6.9489,-6.9509,-6.966,-6.9699,-6.9618,-6.9881,-6.9804,-6.9824,-6.9851,-6.9875,-6.9894,-6.9882,-6.9551,0,0,0,0,0,-6.8974,-6.9077,-6.9146,-6.9289,-6.9326,-6.9365,-6.9424,-6.9428,-6.9502,-6.9532,-6.9581,-6.9653,-6.9751,-6.9815,-6.9908,-7.0082,-7.01,-7.0159,-7.0178,-7.0194,-7.0211,-7.0306,-7.0333,-7.0041,-7.0041,-7.0041,0,0,-6.9044,-6.9104,-6.9168,-6.9303,-6.9359,-6.9464,-6.9391,-6.9505,-6.9582,-6.9549,-6.9692,-6.9731,-6.9812,-6.9974,-7.0047,-7.001,-7.0295,-7.021,-7.0222,-7.0231,-7.0322,-7.035,-7.0374,-7.005,-7.0049,-7.0047,0,0,-6.9225,-6.9281,-6.9406,-6.9464,-6.955,-6.9576,-6.9606,-6.9687,-6.9712,-6.9857,-6.9834,-6.9925,-7.0094,-7.0153,-7.0205,-7.0409,-7.0386,-7.0439,-7.054,-7.0633,-7.0656,-7.0676,-7.075,-7.0776,-7.0456,-7.0456,-7.0456,0,-6.93,-6.9459,-6.9472,-6.9589,-6.9649,-6.9625,-6.9752,-6.9807,-6.9918,-6.996,-6.9917,-7.0129,-7.0182,-7.0358,-7.0408,-7.045,-7.0485,-7.043,-7.0652,-7.0672,-7.0691,-7.0762,-7.0789,-7.0462,-7.0461,-7.0461,-7.046,0,-6.9548,-6.9658,-6.9748,-6.9859,-6.9929,-7.005,-7.0081,-7.015,-7.0149,-7.0179,-7.0326,-7.0389,-7.0495,-7.0537,-7.0535,-7.0713,-7.0687,-7.0648,-7.0571,-7.0725,-7.0791,-7.0818,-7.047,-7.0468,-7.0467,-7.0465,0,0,-6.9772,-6.989,-6.9923,-6.9973,-7.0067,-7.0152,-7.0272,-7.0377,-7.0437,-7.0514,-7.0615,-7.0759,-7.0724,-7.0783,-7.0788,-7.0869,-7.1028,-7.082,-7.0822,-7.0857,-7.1228,-7.1258,-7.1289,-7.1014,-7.1019,-7.1023,-7.1221,0,-6.9962,-7.0175,-7.019,-7.0382,-7.0484,-7.0463,-7.0567,-7.0636,-7.0667,-7.0757,-7.0791,-7.0893,-7.0838,-7.0874,-7.0954,-7.0992,-7.1103,-7.0978,-7.1107,-7.1111,-7.1088,-7.1323,-7.1354,-7.1539,-7.1247,-7.1252,-7.1255,0,-7.0212,-7.0299,-7.0502,-7.0583,-7.0626,-7.072,-7.0818,-7.0905,-7.0982,-7.0999,-7.1066,-7.106,-7.1182,-7.1101,-7.1269,-7.1184,-7.1237,-7.1264,-7.1271,-7.1284,-7.1193,-7.1343,-7.1598,-7.1626,-7.1296,-7.1292,-7.129,0,-7.0356,-7.0524,-7.0668,-7.0711,-7.0809,-7.0875,-7.0919,-7.0991,-7.1054,-7.1139,-7.118,-7.1278,-7.1332,-7.1407,-7.1427,-7.1366,-7.1596,-7.1516,-7.1613,-7.1612,-7.1662,-7.1659,-7.193,-7.1696,-7.1695,-7.1695,-7.1694,0,-7.0567,-7.0691,-7.0734,-7.0822,-7.0961,-7.0978,-7.1115,-7.1154,-7.1218,-7.1313,-7.13,-7.1389,-7.141,-7.1503,-7.1519,-7.1657,-7.1681,-7.1697,-7.17,-7.1699,-7.1697,-7.1735,-7.1722,-7.1702,-7.1701,-7.1699,-7.1698,0,-7.0752,-7.0785,-7.094,-7.102,-7.1043,-7.1143,-7.1211,-7.1295,-7.1325,-7.1445,-7.1474,-7.152,-7.1629,-7.1657,-7.1786,-7.1797,-7.1959,-7.1949,-7.1934,-7.1933,-7.2029,-7.202,-7.2335,-7.2377,-7.2114,-7.2117,-7.2119,0,-7.0884,-7.098,-7.1071,-7.1135,-7.1182,-7.1284,-7.1348,-7.1368,-7.1436,-7.1531,-7.1604,-7.1711,-7.1798,-7.1973,-7.2017,-7.2116,-7.2109,-7.2212,-7.2123,-7.212,-7.2111,-7.2106,-7.2116,-7.2229,-7.2232,-7.2234,-7.2236,0,-7.1116,-7.1129,-7.1223,-7.1324,-7.1402,-7.1482,-7.1558,-7.1611,-7.1641,-7.1717,-7.1829,-7.1897,-7.203,-7.2137,-7.2237,-7.228,-7.2264,-7.2264,-7.2292,-7.2292,-7.2279,-7.2288,-7.198,-7.2256,-7.2254,-7.2253,-7.2252,-7.2251,-7.128,-7.1365,-7.1443,-7.1548,-7.1608,-7.1681,-7.1764,-7.1805,-7.19,-7.2011,-7.2016,-7.2138,-7.2212,-7.2345,-7.2394,-7.2489,-7.2457,-7.2497,-7.2508,-7.2518,-7.2527,-7.2264,-7.2507,-7.2506,-7.2506,-7.2505,-7.2505,0,-7.1512,-7.1562,-7.1659,-7.1767,-7.1851,-7.183,-7.1913,-7.1984,-7.2092,-7.2164,-7.225,-7.2379,-7.2483,-7.2536,-7.2639,-7.2704,-7.2699,-7.2731,-7.2726,-7.2737,-7.2548,-7.2514,-7.2733,-7.2733,-7.2733,-7.2733,-7.2733,-7.2733,-7.1643,-7.1785,-7.1807,-7.1979,-7.2027,-7.2148,-7.2198,-7.2264,-7.2322,-7.2467,-7.2554,-7.2588,-7.2653,-7.276,-7.2854,-7.2867,-7.2905,-7.2941,-7.295,-7.2773,-7.275,-7.2727,-7.2696,-7.2949,-7.2949,-7.313,-7.3132,-7.3133]}]]